Provo, UT

1:19 AM MST on December 10, 2019 (GMT -0700)
Provo Municipal

Weather History for KPVU - October, 2019

Change the Weather History Date:

Saturday, October 26, 2019

  Actual Average Record
Temperature  
Mean Temperature 48 °F -  
Max Temperature 66 °F 53 °F 73 °F (1999)
Min Temperature 33 °F 32 °F 24 °F (2012)
Degree Days  
Heating Degree Days 17    
Moisture  
Dew Point 28 °F    
Average Humidity 52    
Maximum Humidity 79    
Minimum Humidity 29    
Precipitation  
Precipitation 0.00 in - - ()
Sea Level Pressure  
Sea Level Pressure 29.85 in    
Wind  
Wind Speed 8 mph (NNW)    
Max Wind Speed 30 mph    
Max Gust Speed 37 mph    
Visibility 10 miles    
Events      
Averages and records for this station are not official NWS values.
T = Trace of Precipitation, MM = Missing Value Source: NWS Daily Summary

Daily Weather History Graph

Daily Weather History Graph

Search for Another Location

Airport or City:

Astronomy

Oct. 26, 2019 Rise Set
Actual Time 7:49 AM MDT 6:31 PM MDT
Civil Twilight 7:21 AM MDT 6:59 PM MDT
Nautical Twilight 6:49 AM MDT 7:31 PM MDT
Astronomical Twilight 6:18 AM MDT 8:02 PM MDT
Moon 5:49 AM MDT (10/26) 6:09 PM MDT (10/26)
Length of Visible Light 11h 38m
Length of Day
10h 42m
Waning Crescent, 3% of the Moon is Illuminated
Oct 26
Waning Crescent
Oct 27
New
Nov 4
First Quarter
Nov 12
Full
Nov 19
Last Quarter

Hourly Weather History & Observations

Time (MDT) Temp. Windchill Dew Point Humidity Pressure Visibility Wind Dir Wind Speed Gust Speed Precip Events Conditions
2:56 AM 34.0 °F - 27.0 °F 75% 30.09 in 10.0 mi Calm Calm - N/A   Clear
3:56 AM 33.1 °F 28.7 °F 27.0 °F 78% 30.05 in 10.0 mi NE 4.6 mph - N/A   Clear
4:56 AM 36.0 °F - 28.9 °F 76% 30.01 in 10.0 mi Calm Calm - N/A   Clear
5:56 AM 34.0 °F - 28.0 °F 79% 30.00 in 10.0 mi Calm Calm - N/A   Clear
6:56 AM 34.0 °F 28.0 °F 27.0 °F 75% 29.99 in 10.0 mi East 6.9 mph - N/A   Clear
7:56 AM 33.1 °F 26.9 °F 27.0 °F 78% 29.99 in 10.0 mi ENE 6.9 mph - N/A   Clear
8:56 AM 39.9 °F - 32.0 °F 73% 29.96 in 10.0 mi Calm Calm - N/A   Clear
9:56 AM 46.9 °F - 30.9 °F 54% 29.93 in 10.0 mi East 6.9 mph - N/A   Clear
10:56 AM 53.1 °F - 30.9 °F 43% 29.89 in 10.0 mi Calm Calm - N/A   Clear
11:56 AM 57.9 °F - 30.0 °F 35% 29.84 in 10.0 mi SSE 5.8 mph - N/A   Clear
12:56 PM 62.1 °F - 30.9 °F 31% 29.79 in 10.0 mi Calm Calm - N/A   Clear
1:56 PM 63.0 °F - 34.0 °F 34% 29.73 in 10.0 mi WNW 9.2 mph - N/A   Partly Cloudy
2:56 PM 62.1 °F - 28.9 °F 29% 29.70 in 10.0 mi NNW 12.7 mph - N/A   Scattered Clouds
3:56 PM 60.1 °F - 35.1 °F 39% 29.67 in 10.0 mi NW 20.7 mph - N/A   Scattered Clouds
4:56 PM 57.0 °F - 32.0 °F 39% 29.68 in 10.0 mi NW 25.3 mph 33.4 mph N/A   Scattered Clouds
5:56 PM 53.1 °F - 34.0 °F 48% 29.73 in 10.0 mi NNW 28.8 mph 36.8 mph N/A   Scattered Clouds
6:56 PM 51.1 °F - 30.0 °F 44% 29.75 in 10.0 mi NW 23.0 mph 33.4 mph N/A   Scattered Clouds
7:56 PM 48.0 °F - 25.0 °F 41% 29.78 in 10.0 mi NW 23.0 mph 29.9 mph N/A   Scattered Clouds
8:56 PM 46.0 °F 36.9 °F 21.9 °F 39% 29.78 in 10.0 mi NW 28.8 mph 36.8 mph N/A   Scattered Clouds
9:56 PM 44.1 °F 34.0 °F 21.0 °F 40% 29.80 in 10.0 mi NW 29.9 mph 36.8 mph N/A   Clear
10:56 PM 42.1 °F 31.9 °F 23.0 °F 47% 29.82 in 10.0 mi NW 26.5 mph 29.9 mph N/A   Clear
11:56 PM 41.0 °F 32.2 °F 21.0 °F 45% 29.81 in 10.0 mi NW 18.4 mph 28.8 mph N/A   Clear